Tracking 29892 objects as of 21-Nov-2024
HD Live streaming from Space Station
objects crossing your sky now

STARLINK-1190

Track STARLINK-1190 now!
10-day predictions
STARLINK-1190 is classified as:


NORAD ID: 45083
Int'l Code: 2020-006AR
Perigee: 552.9 km
Apogee: 555.7 km
Inclination: 53.1 °
Period: 95.6 minutes
Semi major axis: 6925 km
RCS: Unknown
Launch date: January 29, 2020
Source: United States (US)
Launch site: AIR FORCE EASTERN TEST RANGE (AFETR)
Your satellite tracking list
Your tracking list is empty




NASA's NSSDC Master Catalog

Two Line Element Set (TLE):
1 45083U 20006AR  24325.79820779  .00024617  00000-0  16649-2 0  9991
2 45083  53.0535 253.9977 0001998  87.7297 272.3921 15.06418509265033
Source of the keplerian elements: AFSPC